SCP
0 0 0 0 0 0 -0 0 0 0 0 0 0 0 0 -0 -0 -0 -0 -0 0 -0 0 0 0 0 0 0 0 0 0 0 0 0 0 0 0 0 0 0 0 0 0 0
-0 -0 -0 -0 -0 0 0 0 0 0 0 0 -0 0 0 -0 -0 0 0 0 -0 -0 0 0 0 0 0 0 0 0 0 0 0 0 0 0 0 0 0 0 0 0 0 0
-0 -0 -0 0 0 0 0 0 0 0 0 0 -0 0 0 -0 -0 -0 -0 -0 -0 -0 0 0 0 0 0 0 0 0 0 0 0 0 0 0 0 0 0 0 0 0 0 0
-0 -0 0 0 0 0 0 0 0 0 0 0 0 0 0 -0 -0 -0 -0 -0 -0 0 0 0 0 0 0 0 0 0 0 0 0 0 0 0 0 0 0 0 0 0 0 0
0 0 -0 0 0 0 0 0 0 0 0 0 0 0 0 -0 0 -0 0 -0 0 0 0 0 0 0 0 0 0 0 0 0 0 0 0 0 0 0 0 0 0 0 0 0
0 0 0 0 0 0 0 0 0 0 0 0 0 0 0 0 -0 0 0 0 0 0 -0 0 0 0 0 0 0 0 0 0 0 0 0 0 0 0 0 0 0 0 0 0
0 0 -0 0 0 -0 0 0 0 0 0 0 0 0 0 0 0 0 0 0 0 0 0 0 0 0 0 0 0 0 0 0 0 0 0 0 0 0 0 0 0 0 0 0
0 0 0 0 0 0 0 0 0 0 0 0 0 0 -0 0 0 0 0 0 0 -0 -0 0 0 0 0 0 0 0 0 0 0 0 0 0 0 0 0 0 0 0 0 0
0 0 0 0 0 0 0 0 0 0 0 0 0 0 0 -0 -0 -0 -0 0 0 -0 0 0 0 0 0 0 0 0 0 0 0 -0 -0 0 0 0 0 0 0 0 0 0
0 0 0 0 0 0 0 0 0 0 0 0 0 -0 -0 -0 -0 -0 -0 -0 0 0 0 0 0 0 0 0 0 0 0 0 0 0 0 -0 -0 0 0 0 0 0 0 0
0 0 0 0 0 0 0 0 0 0 0 0 0 0 0 0 0 -0 -0 0 0 0 0 0 0 0 0 0 0 0 0 0 0 0 0 -0 -0 0 0 0 0 0 0 0
0 0 0 0 0 -0 0 0 0 0 0 0 0 0 0 0 0 -0 0 0 0 0 0 0 0 0 0 0 0 0 0 0 0 0 0 0 0 0 0 0 0 0 0 0
0 0 0 0 0 0 0 0 0 0 0 0 0 0 0 0 0 0 0 0 0 0 0 0 0 0 0 0 0 0 0 0 0 0 0 0 0 0 0 0 0 0 0 0
0 0 0 0 0 0 0 0 0 0 0 0 0 0 0 0 0 0 0 0 0 0 0 0 0 0 0 0 0 0 0 0 0 0 0 0 0 -0 0 0 0 0 -0 0
0 0 0 0 0 0 0 0 0 0 0 0 0 0 0 0 0 0 0 0 0 0 0 0 0 0 0 0 0 0 0 0 0 0 0 0 0 -0 0 0 0 0 0 0
0 0 0 0 0 0 0 0 0 0 0 0 0 0 0 0 0 0 0 0 0 0 0 0 0 0 0 0 0 0 0 0 0 0 0 0 0 -0 -0 0 0 0 0 0
0 0 0 0 0 0 0 0 0 0 0 0 0 0 0 0 0 0 0 0 0 0 0 0 0 0 0 0 0 0 0 0 0 0 0 0 0 0 0 0 0 0 0 0
0 0 0 0 0 0 0 0 0 0 0 0 0 0 0 0 0 0 0 0 0 0 0 0 0 0 0 0 0 0 0 0 0 0 0 0 0 0 0 0 0 0 0 0
0 0 0 0 0 0 0 0 0 0 0 0 0 0 0 0 0 0 0 0 0 0 0 0 0 0 0 0 0 0 0 0 0 0 0 0 0 0 0 0 0 0 0 0
0 0 0 0 0 0 0 0 0 0 0 0 0 0 0 0 0 0 0 0 0 0 0 0 0 0 0 0 0 0 0 0 0 0 0 0 0 0 0 0 0 0 0 0
0 0 0 0 0 0 0 0 0 0 0 0 0 0 0 0 0 0 0 0 0 0 0 0 0 0 0 0 0 0 0 0 0 0 0 0 0 0 0 0 0 0 0 0
0 0 0 0 0 0 0 0 0 0 0 0 0 0 0 0 0 0 0 0 0 0 0 0 0 0 0 0 0 0 0 0 0 0 0 0 0 0 0 0 0 0 0 0
0 0 0 0 0 0 0 0 0 0 0 0 0 0 0 0 0 0 0 0 0 0 0 0 0 0 0 0 0 0 0 0 0 0 0 0 0 0 0 0 0 0 0 0
0 0 0 0 0 0 0 -0 0 0 0 0 0 0 0 0 0 0 0 0 0 0 0 0 0 0 0 0 0 0 0 0 0 0 0 0 0 0 0 0 0 0 0 0
0 0 0 0 0 0 0 0 0 0 0 0 0 0 0 0 0 0 0 0 0 0 0 0 0 0 0 0 0 0 0 0 0 0 0 0 0 0 0 0 0 0 0 0
0 0 0 0 0 0 0 0 0 0 0 0 0 0 0 0 0 0 0 0 0 0 0 0 0 0 0 0 0 0 0 0 0 0 0 0 0 0 0 0 0 0 0 0
Wind_Speed_500mb
7 11 6 12 6 7 2 4 6 1 7 4 7 6 7 27 7 10 19 34 26 33 19 28 33 38 31 22 41 49 43 33 25 23 21 27 25 22 20 20 18 18 15 14
13 1 6 9 8 11 9 9 4 2 5 3 8 7 11 11 11 9 21 23 28 30 10 16 27 31 29 19 33 46 41 35 30 25 21 25 26 28 24 23 20 18 20 16
7 10 11 8 5 3 4 14 10 9 3 6 10 11 11 10 13 15 15 8 16 22 11 10 15 21 30 19 27 45 46 40 36 28 23 28 32 31 28 22 18 16 13 14
8 4 3 12 8 11 5 15 16 19 7 3 7 7 10 12 16 13 11 8 12 25 11 8 9 12 19 16 19 36 44 42 39 32 28 32 35 34 29 25 20 17 16 17
15 7 8 10 8 6 5 9 16 12 8 7 2 6 15 9 14 10 6 9 18 22 15 12 14 15 12 13 18 24 37 41 39 37 34 37 38 33 30 25 23 21 18 19
11 7 5 9 12 7 13 15 18 11 5 5 6 5 10 7 9 13 4 19 28 29 26 18 20 23 15 11 12 24 32 41 43 41 38 41 40 37 35 30 29 24 21 21
12 8 9 4 11 9 15 12 6 6 6 9 9 2 16 12 12 7 24 43 44 43 38 34 28 28 22 12 9 25 31 43 48 44 39 39 43 41 36 31 28 28 25 25
3 13 3 3 6 12 10 13 9 8 7 7 7 7 10 8 23 26 29 35 47 52 47 45 45 41 39 29 14 20 37 45 48 43 32 35 39 42 41 34 32 32 28 23
6 10 10 4 7 2 7 3 10 14 6 5 6 12 18 12 15 24 36 38 42 45 47 47 51 52 52 50 37 25 34 39 39 51 47 32 33 39 42 38 36 33 32 26
11 5 5 7 4 11 4 9 7 7 8 5 8 10 10 10 13 16 24 33 42 48 47 40 55 60 49 49 38 34 43 42 28 22 41 39 36 35 38 38 38 41 32 26
9 8 12 5 4 3 5 4 12 9 7 10 3 11 12 8 5 11 28 37 39 41 44 51 49 46 45 36 39 44 51 59 42 32 28 44 37 36 35 37 38 37 37 28
11 10 4 4 8 6 3 4 7 9 7 3 6 11 4 8 6 15 31 31 27 24 33 41 43 43 41 42 42 51 57 55 34 40 36 34 38 32 33 29 27 35 36 32
13 3 4 14 13 6 6 4 7 8 6 11 11 10 1 5 10 19 26 28 30 33 36 39 37 33 44 40 40 41 38 40 31 23 32 25 30 27 24 29 25 27 31 31
10 6 12 13 11 6 5 2 7 7 6 9 10 6 11 12 12 25 28 26 27 32 33 32 27 33 39 35 46 35 27 20 21 34 29 31 29 30 27 28 26 19 22 25
6 7 5 2 6 6 2 1 4 11 8 9 10 12 1 1 9 11 12 16 24 28 33 32 31 29 32 37 38 33 13 13 24 26 23 21 23 29 32 33 31 29 25 29
5 2 2 4 5 7 4 8 6 3 4 6 10 3 7 6 7 5 6 18 25 27 27 28 26 29 30 36 34 25 22 27 23 19 20 27 28 35 43 38 31 30 30 25
5 11 6 5 2 3 10 10 5 3 2 11 7 12 7 4 1 3 7 16 21 23 26 25 26 29 32 34 25 18 27 28 23 20 19 20 21 21 17 17 22 28 23 20
8 7 4 5 4 4 11 4 6 4 6 8 8 10 15 10 7 4 6 13 20 20 20 22 22 27 33 28 19 19 25 20 19 20 17 16 23 29 19 7 5 5 12 18
5 9 5 6 4 10 10 6 12 10 10 11 14 11 12 11 5 10 6 12 15 16 14 19 22 27 26 23 19 21 23 10 16 18 19 22 21 12 15 16 15 15 18 21
8 10 8 5 5 8 15 6 10 11 10 30 32 26 24 16 2 9 8 6 7 9 15 21 24 26 19 22 22 21 17 12 17 18 17 14 10 11 22 19 21 18 19 22
5 5 7 5 5 14 10 19 14 8 15 36 48 41 33 12 17 7 5 3 5 12 18 13 20 20 18 20 19 20 14 11 16 14 13 13 15 22 23 24 25 24 22 24
11 10 7 5 4 13 24 14 14 12 4 41 46 38 39 21 18 11 6 3 7 14 9 12 20 19 13 14 16 15 9 13 12 15 17 21 26 28 28 28 28 28 27 30
5 11 6 15 13 8 47 14 36 5 9 38 41 38 33 29 20 13 12 7 8 9 10 10 16 13 11 10 13 8 7 10 14 18 23 27 29 30 29 30 33 32 30 35
4 6 3 6 6 14 20 49 35 20 25 35 35 33 34 32 18 19 16 11 10 6 8 10 8 10 12 12 12 11 11 13 18 17 22 29 31 29 28 25 25 27 27 31
6 8 4 11 18 19 24 30 32 31 26 28 28 32 37 31 23 23 19 14 12 7 5 6 3 8 14 16 15 15 14 15 15 19 23 25 28 26 26 23 24 28 31 33
13 11 9 11 12 12 25 16 26 36 41 38 36 38 42 34 29 30 23 17 15 9 5 4 4 6 13 17 14 14 14 12 16 20 19 21 25 26 27 30 33 32 34 37
Wind_Direction_500mb
16 53 344 303 200 230 349 89 91 28 338 9 357 291 315 329 328 315 334 351 349 351 1 12 26 19 11 260 226 215 216 214 228 236 265 248 238 243 241 235 240 254 269 276
14 271 274 275 332 147 108 109 59 47 2 36 343 309 302 286 264 291 324 336 341 345 20 33 35 11 2 309 241 222 220 223 239 243 267 242 239 236 240 242 249 259 264 272
173 242 331 17 353 74 175 147 177 186 43 36 355 315 320 285 305 294 305 316 9 353 8 31 24 13 2 318 258 233 228 231 243 249 254 238 231 233 237 242 250 261 252 258
234 243 17 325 273 159 238 184 147 131 87 209 59 285 308 310 320 307 342 248 342 4 300 321 333 353 1 330 259 238 230 239 246 255 262 251 238 238 239 242 239 231 232 223
255 289 346 322 258 191 273 139 128 96 96 95 311 84 273 340 321 300 351 343 336 343 318 275 286 302 343 325 269 251 241 242 247 258 265 254 244 244 234 235 242 232 230 230
243 288 222 223 35 51 148 70 42 61 73 34 277 127 288 280 246 312 319 349 342 338 331 286 275 286 305 314 295 256 255 253 252 257 263 250 244 246 247 241 242 239 245 236
327 304 286 223 76 316 80 70 42 344 3 229 324 17 242 264 289 252 297 310 317 318 317 296 287 287 290 301 307 270 286 264 256 258 256 240 247 246 251 249 247 243 252 253
73 335 304 314 191 192 202 155 155 226 183 260 352 254 263 250 299 308 312 306 305 307 308 295 300 302 287 277 269 271 296 289 265 264 248 246 250 251 255 258 258 256 252 255
155 276 292 214 44 101 169 102 137 106 25 68 265 288 306 327 319 316 314 315 311 317 315 308 304 309 289 273 252 250 298 286 280 295 281 269 261 255 257 261 260 253 251 258
210 304 263 304 97 36 116 142 73 25 136 216 281 291 241 304 322 335 338 337 328 323 320 317 319 322 317 282 276 268 268 281 277 305 284 275 276 276 260 256 255 258 256 250
127 123 289 2 36 236 8 39 52 113 118 159 178 263 219 219 327 324 324 328 323 321 324 331 333 331 324 307 295 286 278 280 280 315 254 261 255 271 273 258 262 267 255 247
189 145 197 233 307 264 110 134 140 119 213 152 150 273 330 222 263 331 336 348 6 24 25 19 12 4 351 338 322 306 297 284 297 295 263 247 257 262 289 256 271 267 250 252
184 51 42 351 350 6 70 99 106 106 85 190 142 256 138 101 88 50 45 54 42 37 30 20 11 13 2 351 336 339 320 301 300 291 302 258 250 251 264 260 263 264 261 251
115 122 154 189 205 185 280 341 162 130 128 173 224 266 10 356 47 34 31 40 45 36 16 7 8 9 11 21 7 3 346 328 316 331 317 274 265 245 245 267 253 248 248 245
106 133 165 133 298 200 170 328 202 202 224 170 216 170 148 220 60 23 39 30 22 13 4 359 359 10 13 11 6 358 350 323 323 328 320 305 267 271 274 266 248 231 233 251
20 149 113 139 13 130 207 269 278 178 179 73 118 136 231 106 88 27 22 12 7 359 357 357 357 2 8 4 3 359 351 339 345 341 338 316 293 279 269 266 249 241 252 268
83 135 112 245 327 132 306 248 217 279 191 150 179 219 157 90 102 331 352 356 352 353 353 352 353 358 359 359 10 27 13 356 2 348 329 347 351 339 315 283 275 260 272 254
122 92 65 191 80 213 240 214 162 224 228 199 112 161 180 198 206 299 324 328 338 343 345 351 355 354 358 5 26 20 11 7 15 355 339 337 337 337 334 355 5 315 280 274
9 118 83 127 186 285 303 185 172 173 238 197 163 178 189 207 254 239 297 318 329 342 359 2 1 358 2 18 16 9 11 28 9 6 351 338 347 7 354 341 335 332 317 301
63 69 119 130 163 224 237 192 153 110 294 193 183 185 190 166 138 256 264 324 356 10 11 10 12 10 19 5 359 360 8 1 6 9 13 6 357 343 345 353 335 324 313 308
38 13 186 138 200 283 235 148 148 132 238 185 190 193 189 181 207 202 216 349 7 8 1 19 19 13 357 350 351 350 348 351 1 1 347 337 325 321 318 324 333 328 315 312
184 156 208 110 123 277 158 123 170 221 229 185 193 197 198 205 193 193 218 268 341 348 353 0 2 2 347 335 339 343 357 343 332 336 333 328 324 321 314 310 318 315 313 310
259 187 205 183 209 213 186 209 212 239 222 190 200 200 199 192 193 229 245 263 325 328 1 348 343 349 339 335 338 334 315 335 334 322 322 326 329 326 322 315 312 308 308 312
273 172 189 359 266 240 242 231 241 258 236 207 208 205 200 203 211 234 235 265 272 278 350 338 333 346 350 335 325 307 287 310 328 334 332 327 323 322 319 311 311 308 306 309
203 131 193 265 275 268 266 243 241 238 213 210 216 222 214 210 231 229 235 241 249 257 306 314 314 358 4 340 310 302 291 303 317 330 334 341 340 333 327 320 317 320 322 320
194 196 173 227 235 237 268 276 235 224 224 228 230 218 209 222 238 226 227 231 229 241 253 270 256 319 336 341 324 301 290 292 310 323 333 337 336 334 328 323 315 312 319 319
Wind_Speed_850mb
7 11 6 12 6 7 2 4 6 1 7 4 7 6 7 27 7 10 19 34 26 33 19 28 33 38 31 22 41 49 43 33 25 23 21 27 25 22 20 20 18 18 15 14
13 1 6 9 8 11 9 9 4 2 5 3 8 7 11 11 11 9 21 23 28 30 10 16 27 31 29 19 33 46 41 35 30 25 21 25 26 28 24 23 20 18 20 16
7 10 11 8 5 3 4 14 10 9 3 6 10 11 11 10 13 15 15 8 16 22 11 10 15 21 30 19 27 45 46 40 36 28 23 28 32 31 28 22 18 16 13 14
8 4 3 12 8 11 5 15 16 19 7 3 7 7 10 12 16 13 11 8 12 25 11 8 9 12 19 16 19 36 44 42 39 32 28 32 35 34 29 25 20 17 16 17
15 7 8 10 8 6 5 9 16 12 8 7 2 6 15 9 14 10 6 9 18 22 15 12 14 15 12 13 18 24 37 41 39 37 34 37 38 33 30 25 23 21 18 19
11 7 5 9 12 7 13 15 18 11 5 5 6 5 10 7 9 13 4 19 28 29 26 18 20 23 15 11 12 24 32 41 43 41 38 41 40 37 35 30 29 24 21 21
12 8 9 4 11 9 15 12 6 6 6 9 9 2 16 12 12 7 24 43 44 43 38 34 28 28 22 12 9 25 31 43 48 44 39 39 43 41 36 31 28 28 25 25
3 13 3 3 6 12 10 13 9 8 7 7 7 7 10 8 23 26 29 35 47 52 47 45 45 41 39 29 14 20 37 45 48 43 32 35 39 42 41 34 32 32 28 23
6 10 10 4 7 2 7 3 10 14 6 5 6 12 18 12 15 24 36 38 42 45 47 47 51 52 52 50 37 25 34 39 39 51 47 32 33 39 42 38 36 33 32 26
11 5 5 7 4 11 4 9 7 7 8 5 8 10 10 10 13 16 24 33 42 48 47 40 55 60 49 49 38 34 43 42 28 22 41 39 36 35 38 38 38 41 32 26
9 8 12 5 4 3 5 4 12 9 7 10 3 11 12 8 5 11 28 37 39 41 44 51 49 46 45 36 39 44 51 59 42 32 28 44 37 36 35 37 38 37 37 28
11 10 4 4 8 6 3 4 7 9 7 3 6 11 4 8 6 15 31 31 27 24 33 41 43 43 41 42 42 51 57 55 34 40 36 34 38 32 33 29 27 35 36 32
13 3 4 14 13 6 6 4 7 8 6 11 11 10 1 5 10 19 26 28 30 33 36 39 37 33 44 40 40 41 38 40 31 23 32 25 30 27 24 29 25 27 31 31
10 6 12 13 11 6 5 2 7 7 6 9 10 6 11 12 12 25 28 26 27 32 33 32 27 33 39 35 46 35 27 20 21 34 29 31 29 30 27 28 26 19 22 25
6 7 5 2 6 6 2 1 4 11 8 9 10 12 1 1 9 11 12 16 24 28 33 32 31 29 32 37 38 33 13 13 24 26 23 21 23 29 32 33 31 29 25 29
5 2 2 4 5 7 4 8 6 3 4 6 10 3 7 6 7 5 6 18 25 27 27 28 26 29 30 36 34 25 22 27 23 19 20 27 28 35 43 38 31 30 30 25
5 11 6 5 2 3 10 10 5 3 2 11 7 12 7 4 1 3 7 16 21 23 26 25 26 29 32 34 25 18 27 28 23 20 19 20 21 21 17 17 22 28 23 20
8 7 4 5 4 4 11 4 6 4 6 8 8 10 15 10 7 4 6 13 20 20 20 22 22 27 33 28 19 19 25 20 19 20 17 16 23 29 19 7 5 5 12 18
5 9 5 6 4 10 10 6 12 10 10 11 14 11 12 11 5 10 6 12 15 16 14 19 22 27 26 23 19 21 23 10 16 18 19 22 21 12 15 16 15 15 18 21
8 10 8 5 5 8 15 6 10 11 10 30 32 26 24 16 2 9 8 6 7 9 15 21 24 26 19 22 22 21 17 12 17 18 17 14 10 11 22 19 21 18 19 22
5 5 7 5 5 14 10 19 14 8 15 36 48 41 33 12 17 7 5 3 5 12 18 13 20 20 18 20 19 20 14 11 16 14 13 13 15 22 23 24 25 24 22 24
11 10 7 5 4 13 24 14 14 12 4 41 46 38 39 21 18 11 6 3 7 14 9 12 20 19 13 14 16 15 9 13 12 15 17 21 26 28 28 28 28 28 27 30
5 11 6 15 13 8 47 14 36 5 9 38 41 38 33 29 20 13 12 7 8 9 10 10 16 13 11 10 13 8 7 10 14 18 23 27 29 30 29 30 33 32 30 35
4 6 3 6 6 14 20 49 35 20 25 35 35 33 34 32 18 19 16 11 10 6 8 10 8 10 12 12 12 11 11 13 18 17 22 29 31 29 28 25 25 27 27 31
6 8 4 11 18 19 24 30 32 31 26 28 28 32 37 31 23 23 19 14 12 7 5 6 3 8 14 16 15 15 14 15 15 19 23 25 28 26 26 23 24 28 31 33
13 11 9 11 12 12 25 16 26 36 41 38 36 38 42 34 29 30 23 17 15 9 5 4 4 6 13 17 14 14 14 12 16 20 19 21 25 26 27 30 33 32 34 37
Wind_Direction_850mb
16 53 344 303 200 230 349 89 91 28 338 9 357 291 315 329 328 315 334 351 349 351 1 12 26 19 11 260 226 215 216 214 228 236 265 248 238 243 241 235 240 254 269 276
14 271 274 275 332 147 108 109 59 47 2 36 343 309 302 286 264 291 324 336 341 345 20 33 35 11 2 309 241 222 220 223 239 243 267 242 239 236 240 242 249 259 264 272
173 242 331 17 353 74 175 147 177 186 43 36 355 315 320 285 305 294 305 316 9 353 8 31 24 13 2 318 258 233 228 231 243 249 254 238 231 233 237 242 250 261 252 258
234 243 17 325 273 159 238 184 147 131 87 209 59 285 308 310 320 307 342 248 342 4 300 321 333 353 1 330 259 238 230 239 246 255 262 251 238 238 239 242 239 231 232 223
255 289 346 322 258 191 273 139 128 96 96 95 311 84 273 340 321 300 351 343 336 343 318 275 286 302 343 325 269 251 241 242 247 258 265 254 244 244 234 235 242 232 230 230
243 288 222 223 35 51 148 70 42 61 73 34 277 127 288 280 246 312 319 349 342 338 331 286 275 286 305 314 295 256 255 253 252 257 263 250 244 246 247 241 242 239 245 236
327 304 286 223 76 316 80 70 42 344 3 229 324 17 242 264 289 252 297 310 317 318 317 296 287 287 290 301 307 270 286 264 256 258 256 240 247 246 251 249 247 243 252 253
73 335 304 314 191 192 202 155 155 226 183 260 352 254 263 250 299 308 312 306 305 307 308 295 300 302 287 277 269 271 296 289 265 264 248 246 250 251 255 258 258 256 252 255
155 276 292 214 44 101 169 102 137 106 25 68 265 288 306 327 319 316 314 315 311 317 315 308 304 309 289 273 252 250 298 286 280 295 281 269 261 255 257 261 260 253 251 258
210 304 263 304 97 36 116 142 73 25 136 216 281 291 241 304 322 335 338 337 328 323 320 317 319 322 317 282 276 268 268 281 277 305 284 275 276 276 260 256 255 258 256 250
127 123 289 2 36 236 8 39 52 113 118 159 178 263 219 219 327 324 324 328 323 321 324 331 333 331 324 307 295 286 278 280 280 315 254 261 255 271 273 258 262 267 255 247
189 145 197 233 307 264 110 134 140 119 213 152 150 273 330 222 263 331 336 348 6 24 25 19 12 4 351 338 322 306 297 284 297 295 263 247 257 262 289 256 271 267 250 252
184 51 42 351 350 6 70 99 106 106 85 190 142 256 138 101 88 50 45 54 42 37 30 20 11 13 2 351 336 339 320 301 300 291 302 258 250 251 264 260 263 264 261 251
115 122 154 189 205 185 280 341 162 130 128 173 224 266 10 356 47 34 31 40 45 36 16 7 8 9 11 21 7 3 346 328 316 331 317 274 265 245 245 267 253 248 248 245
106 133 165 133 298 200 170 328 202 202 224 170 216 170 148 220 60 23 39 30 22 13 4 359 359 10 13 11 6 358 350 323 323 328 320 305 267 271 274 266 248 231 233 251
20 149 113 139 13 130 207 269 278 178 179 73 118 136 231 106 88 27 22 12 7 359 357 357 357 2 8 4 3 359 351 339 345 341 338 316 293 279 269 266 249 241 252 268
83 135 112 245 327 132 306 248 217 279 191 150 179 219 157 90 102 331 352 356 352 353 353 352 353 358 359 359 10 27 13 356 2 348 329 347 351 339 315 283 275 260 272 254
122 92 65 191 80 213 240 214 162 224 228 199 112 161 180 198 206 299 324 328 338 343 345 351 355 354 358 5 26 20 11 7 15 355 339 337 337 337 334 355 5 315 280 274
9 118 83 127 186 285 303 185 172 173 238 197 163 178 189 207 254 239 297 318 329 342 359 2 1 358 2 18 16 9 11 28 9 6 351 338 347 7 354 341 335 332 317 301
63 69 119 130 163 224 237 192 153 110 294 193 183 185 190 166 138 256 264 324 356 10 11 10 12 10 19 5 359 360 8 1 6 9 13 6 357 343 345 353 335 324 313 308
38 13 186 138 200 283 235 148 148 132 238 185 190 193 189 181 207 202 216 349 7 8 1 19 19 13 357 350 351 350 348 351 1 1 347 337 325 321 318 324 333 328 315 312
184 156 208 110 123 277 158 123 170 221 229 185 193 197 198 205 193 193 218 268 341 348 353 0 2 2 347 335 339 343 357 343 332 336 333 328 324 321 314 310 318 315 313 310
259 187 205 183 209 213 186 209 212 239 222 190 200 200 199 192 193 229 245 263 325 328 1 348 343 349 339 335 338 334 315 335 334 322 322 326 329 326 322 315 312 308 308 312
273 172 189 359 266 240 242 231 241 258 236 207 208 205 200 203 211 234 235 265 272 278 350 338 333 346 350 335 325 307 287 310 328 334 332 327 323 322 319 311 311 308 306 309
203 131 193 265 275 268 266 243 241 238 213 210 216 222 214 210 231 229 235 241 249 257 306 314 314 358 4 340 310 302 291 303 317 330 334 341 340 333 327 320 317 320 322 320
194 196 173 227 235 237 268 276 235 224 224 228 230 218 209 222 238 226 227 231 229 241 253 270 256 319 336 341 324 301 290 292 310 323 333 337 336 334 328 323 315 312 319 319